Location: Newark
(43.6583°N, 1.6617°E)
Time: 05:36:33
(UTC+00:00)

Tiros 1 - Pass Details

Date: 01 September 2019
Orbit: 630 x 664 km, 48.4° (Epoch: 21 September)

Event Time Altitude Azimuth Distance (km) Brightness Sun altitude
Rises 19:30:41 0° 220° (SW) 2,914 10.7 -11.4°
Reaches altitude 10° 19:33:06 10° 213° (SSW) 2,006 9.8 -11.8°
Maximum altitude 19:37:25 41° 144° (SE) 922 7.5 -12.5°
Enters shadow 19:41:07 13° 78° (ENE) 1,787 9.0 -13.1°
